Location: *
(51.5000°N, 0.1100°W)
Time: 00:11:54
(UTC+00:00)

MSX - Pass Details

Date: 08 August 2024
Orbit: 895 x 904 km, 99.0° (Epoch: 09 September)

Event Time Altitude Azimuth Distance (km) Brightness Sun altitude
Rises 01:56:19 0° 16° (NNE) 3,544 8.5 -18.3°
Reaches altitude 10° 01:58:45 10° 18° (NNE) 2,599 7.5 -18.1°
Maximum altitude 02:04:34 78° 105° (ESE) 932 3.9 -17.7°
Enters shadow 02:08:00 26° 188° (S) 1,715 4.8 -17.4°
